Temp
60 60 60 60 60 61 60 60 60 60 60 60 60 59 60 60 59 52 47 59 63 69 71 73 73 73 69 67 71 68 52 49 56 61 62 70 68 74 77 75 78 80 78 82 82
60 60 60 60 60 60 60 60 59 59 60 59 59 60 60 60 50 46 59 67 69 71 67 67 68 69 63 65 65 59 48 56 65 69 65 65 65 69 73 73 74 76 80 83 82
59 60 60 60 60 59 59 59 60 59 59 59 60 59 59 57 47 57 71 69 69 71 70 70 69 66 55 62 62 57 54 63 67 71 66 65 69 72 71 67 70 71 74 78 77
59 59 59 59 59 59 59 59 59 60 59 59 59 59 59 50 49 67 74 70 70 69 68 67 64 59 55 56 62 57 64 67 69 72 64 65 69 69 67 72 76 76 76 75 74
58 59 59 59 59 59 58 58 58 59 58 58 58 58 53 45 51 70 73 71 69 68 67 65 60 58 56 59 58 54 63 67 69 69 65 68 67 68 68 76 77 76 77 74 74
58 58 58 58 58 58 58 58 57 57 58 58 58 58 48 43 68 70 68 68 68 67 67 65 63 64 60 60 58 62 63 66 66 65 64 65 68 67 72 78 77 74 74 74 74
58 58 58 58 58 58 58 57 57 57 58 59 59 58 49 51 69 67 68 64 68 71 66 68 69 66 64 58 63 62 57 61 63 66 65 67 62 64 74 76 74 73 73 73 74
58 58 58 58 58 58 58 57 57 58 58 59 60 56 45 66 65 65 65 66 69 70 70 71 71 63 61 62 62 56 54 48 61 65 68 68 57 68 73 70 69 71 72 72 72
58 58 58 58 57 58 57 56 57 59 59 59 53 48 47 68 66 70 70 69 69 69 69 79 69 62 62 56 50 51 46 50 57 65 65 61 56 67 69 69 67 68 69 70 70
58 58 57 57 57 57 56 56 56 58 59 60 58 47 55 63 70 71 70 72 69 66 64 63 58 54 50 49 40 47 47 51 53 60 60 56 57 63 69 66 67 67 68 68 68
58 57 57 57 56 56 54 47 48 47 52 50 55 55 65 73 77 70 73 69 67 62 53 56 50 46 52 53 55 54 50 50 55 62 57 56 56 61 64 59 62 64 65 65 66
57 57 56 56 56 56 53 44 54 56 50 56 59 61 67 71 64 69 73 62 59 52 54 51 46 55 57 56 54 53 48 48 55 60 57 55 55 60 61 60 62 65 64 64 64
56 56 56 56 56 52 50 48 59 60 49 60 61 61 63 67 61 63 70 63 57 53 51 47 54 60 57 54 52 50 48 49 51 57 56 53 50 55 62 62 63 63 63 64 64
56 56 56 55 50 47 47 57 57 56 43 53 58 64 67 68 61 72 70 65 56 53 53 51 58 58 54 53 54 46 56 57 54 50 42 52 38 48 56 58 60 63 62 63 64
55 55 55 55 51 46 58 55 55 54 33 59 58 72 67 64 65 66 73 65 55 55 54 50 53 53 52 54 58 53 58 55 55 47 42 44 39 46 50 53 58 61 63 63 63
55 55 55 54 50 51 55 54 55 43 33 55 62 59 58 62 63 65 66 69 66 57 53 54 59 57 56 60 60 60 53 49 44 41 35 43 43 40 48 54 56 60 63 62 62
55 55 53 56 46 52 52 53 43 34 59 54 56 58 56 55 59 60 57 54 50 46 47 54 54 59 62 52 54 52 43 33 32 32 33 44 41 43 53 58 60 61 59 57 56
54 53 51 54 53 54 52 49 34 50 54 63 61 58 52 56 55 58 54 49 53 52 45 45 44 57 62 58 52 47 45 35 29 29 35 44 38 45 56 58 60 61 58 58 58
53 45 46 51 55 53 50 38 40 51 59 56 60 53 50 56 56 54 51 50 54 54 45 42 45 59 62 63 61 51 44 48 37 35 31 37 44 54 55 55 57 58 58 58 57
48 44 47 57 57 54 46 43 49 56 61 62 52 55 49 52 49 49 49 55 53 55 54 48 40 53 57 60 59 56 57 42 36 29 26 33 37 41 49 51 55 54 55 56 58
43 42 57 61 59 51 41 45 54 63 60 58 55 53 50 51 51 48 49 53 56 53 54 46 43 45 50 47 45 46 43 44 41 35 27 24 34 49 51 49 50 53 54 56 56
44 40 57 64 47 46 45 52 54 55 59 60 59 54 49 49 48 47 49 53 58 57 47 44 40 36 41 47 51 46 41 40 34 33 31 28 31 51 49 50 52 53 57 57 63
41 41 56 58 44 44 49 55 57 53 54 56 54 54 53 48 43 48 48 56 58 54 48 47 37 30 35 41 45 42 43 42 38 37 36 33 34 51 51 51 52 52 54 58 59
42 40 49 52 48 46 49 51 51 56 57 59 54 55 50 45 47 46 47 51 54 52 55 50 36 35 29 34 38 37 41 43 39 30 35 36 37 46 49 52 53 51 51 51 51
42 44 48 41 45 48 48 52 51 51 57 55 50 51 48 41 43 41 45 47 50 53 45 42 33 35 37 40 41 40 40 40 37 41 33 37 39 43 46 49 54 49 51 51 52
43 44 47 45 48 46 46 48 49 50 51 49 46 47 47 40 41 38 41 41 41 44 38 38 31 33 33 41 39 37 40 40 40 40 40 41 40 48 47 45 47 48 49 49 50
48 50 45 44 46 44 44 46 51 50 52 53 49 45 43 44 45 45 42 44 42 40 36 36 33 29 27 36 37 31 37 40 42 43 42 35 41 45 44 47 44 44 47 49 50
MSLP
1017.57 1017.03 1016.50 1016.14 1015.97 1015.61 1015.33 1015.10 1014.90 1014.74 1014.57 1014.37 1014.14 1014.03 1013.82 1013.73 1013.60 1013.63 1012.53 1009.61 1009.43 1009.15 1009.26 1009.32 1010.02 1010.06 1010.09 1010.18 1010.14 1010.34 1011.06 1011.01 1010.04 1008.88 1007.46 1006.40 1005.85 1005.41 1004.93 1004.62 1004.22 1004.02 1003.95 1003.70 1004.39
1017.27 1017.14 1016.69 1016.09 1015.68 1015.55 1015.23 1014.93 1014.73 1014.43 1014.28 1014.12 1013.90 1013.60 1013.54 1013.56 1013.42 1012.25 1008.94 1008.41 1008.62 1008.70 1009.36 1009.51 1009.78 1010.00 1010.36 1010.30 1010.36 1010.40 1010.51 1009.83 1009.23 1007.98 1006.92 1006.77 1006.73 1006.09 1005.53 1005.15 1004.81 1004.41 1004.53 1004.80 1005.11
1017.17 1016.70 1016.50 1016.20 1015.66 1015.27 1015.17 1014.84 1014.46 1014.26 1013.99 1013.85 1013.75 1013.73 1013.67 1013.48 1013.17 1008.12 1005.71 1007.07 1007.80 1008.51 1008.69 1009.24 1009.46 1009.76 1010.17 1010.16 1010.03 1009.95 1009.35 1008.99 1008.56 1007.76 1007.28 1007.00 1006.43 1005.95 1005.77 1005.72 1005.29 1005.26 1005.18 1005.31 1005.75
1017.20 1016.74 1016.38 1015.93 1015.64 1015.16 1014.79 1014.65 1014.31 1013.95 1013.84 1013.62 1013.61 1013.63 1013.70 1013.61 1010.38 1005.70 1005.65 1006.19 1007.24 1008.19 1008.73 1009.12 1009.50 1009.84 1010.02 1009.85 1009.50 1009.50 1008.67 1008.45 1007.99 1007.43 1007.48 1007.23 1006.65 1006.32 1006.22 1005.83 1005.56 1005.36 1005.12 1005.11 1005.48
1016.85 1016.53 1016.11 1015.84 1015.33 1014.97 1014.63 1014.26 1014.14 1013.81 1013.46 1013.48 1013.49 1013.63 1013.55 1012.40 1008.48 1005.49 1005.29 1005.77 1007.18 1007.84 1008.40 1008.69 1009.14 1009.57 1009.60 1009.38 1009.38 1009.14 1008.47 1007.94 1007.58 1007.41 1007.46 1007.31 1006.89 1006.49 1005.94 1005.67 1005.37 1005.35 1005.73 1005.72 1005.57
1016.53 1016.17 1015.73 1015.26 1014.99 1014.63 1014.26 1013.88 1013.57 1013.45 1013.12 1013.00 1013.17 1013.26 1013.01 1010.86 1005.94 1005.51 1005.72 1006.37 1006.55 1007.35 1008.09 1008.19 1008.36 1008.48 1008.69 1008.74 1008.87 1008.30 1008.11 1007.75 1007.46 1007.29 1007.21 1007.31 1006.71 1006.54 1005.76 1005.16 1005.33 1005.38 1005.47 1005.87 1005.94
1016.38 1015.88 1015.44 1014.98 1014.46 1014.14 1013.84 1013.48 1013.08 1012.78 1012.64 1012.67 1012.86 1013.00 1012.30 1008.15 1005.95 1005.92 1005.90 1006.15 1006.19 1006.65 1007.44 1007.63 1008.04 1008.11 1008.15 1008.29 1007.99 1007.97 1008.10 1007.70 1007.30 1006.80 1006.72 1006.62 1006.44 1005.96 1005.44 1005.17 1005.20 1005.45 1005.59 1005.61 1005.63
1016.17 1015.61 1015.17 1014.57 1014.15 1013.70 1013.28 1013.03 1012.57 1012.21 1012.19 1012.50 1012.69 1012.75 1010.74 1006.64 1006.08 1006.03 1006.09 1006.23 1006.37 1006.72 1006.98 1007.37 1007.71 1008.18 1008.08 1007.73 1007.90 1008.02 1007.98 1007.76 1006.86 1006.46 1006.00 1006.42 1005.65 1005.44 1005.19 1005.35 1005.40 1005.34 1005.57 1005.56 1005.44
1015.79 1015.34 1014.88 1014.43 1013.78 1013.37 1013.00 1012.42 1011.91 1011.40 1011.75 1012.30 1012.66 1012.38 1008.84 1005.98 1005.79 1005.25 1005.64 1005.83 1006.41 1006.88 1007.15 1007.18 1007.85 1008.03 1007.98 1008.19 1008.83 1008.79 1008.69 1008.13 1007.24 1006.42 1006.30 1006.32 1006.01 1005.13 1005.00 1005.24 1005.25 1005.21 1005.16 1005.42 1005.38
1015.20 1014.80 1014.38 1014.00 1013.60 1013.07 1012.77 1012.00 1011.75 1011.57 1011.78 1012.13 1012.06 1011.85 1007.82 1005.24 1004.53 1004.60 1004.93 1005.64 1006.07 1006.74 1007.33 1007.38 1007.65 1008.00 1008.32 1008.52 1008.75 1008.88 1008.58 1007.96 1007.45 1006.75 1006.55 1006.46 1006.39 1005.51 1004.93 1005.18 1005.01 1005.00 1004.94 1005.08 1005.22
1014.89 1014.42 1013.89 1013.54 1013.21 1012.89 1012.68 1012.46 1011.98 1011.61 1010.82 1009.23 1008.48 1007.55 1005.57 1004.23 1003.59 1004.17 1004.49 1005.47 1005.88 1006.44 1007.30 1007.24 1007.82 1008.01 1008.08 1008.17 1008.38 1008.49 1008.45 1008.21 1007.35 1006.95 1006.99 1006.77 1006.66 1006.06 1005.20 1004.82 1004.88 1005.06 1005.32 1005.09 1004.97
1014.60 1014.07 1013.52 1012.99 1012.55 1012.42 1012.59 1012.34 1009.51 1008.69 1008.41 1007.16 1007.00 1006.48 1005.09 1004.57 1004.28 1003.79 1004.17 1005.51 1006.03 1006.73 1007.05 1007.69 1007.63 1007.72 1007.99 1008.25 1008.43 1008.56 1008.57 1008.39 1007.54 1007.05 1007.40 1006.87 1006.88 1006.08 1005.35 1005.04 1004.72 1004.61 1005.06 1005.00 1004.86
1014.35 1013.85 1013.22 1012.64 1011.98 1011.50 1011.48 1010.22 1008.40 1008.24 1007.84 1005.58 1004.90 1004.80 1004.32 1004.41 1004.08 1003.70 1004.01 1004.86 1005.62 1006.53 1006.93 1007.50 1007.22 1006.99 1007.64 1007.85 1008.23 1008.22 1008.41 1008.34 1008.21 1007.33 1007.39 1007.31 1007.07 1006.30 1005.32 1004.84 1004.45 1004.55 1004.79 1005.07 1004.95
1013.68 1013.25 1012.95 1012.20 1011.71 1011.67 1010.55 1008.26 1007.91 1008.70 1007.60 1004.69 1003.90 1002.70 1003.22 1003.40 1003.46 1002.95 1003.43 1004.24 1005.25 1006.15 1006.93 1007.24 1006.74 1007.06 1007.43 1007.58 1007.77 1007.97 1007.51 1007.75 1008.15 1008.35 1008.24 1007.81 1007.78 1007.09 1005.92 1005.54 1005.09 1004.76 1004.99 1004.96 1004.75
1013.07 1012.64 1012.38 1012.50 1011.89 1011.21 1008.46 1008.15 1007.58 1008.23 1006.32 1002.92 1002.49 1001.74 1001.85 1002.64 1002.43 1002.52 1002.79 1003.67 1004.75 1005.59 1006.68 1006.79 1006.49 1006.59 1006.71 1006.63 1006.79 1007.01 1007.07 1007.81 1008.04 1008.55 1008.76 1008.81 1008.97 1007.20 1006.49 1005.82 1005.23 1004.89 1004.75 1004.55 1004.44
1012.46 1011.87 1011.60 1011.22 1011.31 1008.66 1008.02 1008.16 1007.98 1007.58 1004.38 1001.95 1001.43 1001.72 1002.26 1002.40 1002.44 1002.61 1002.87 1003.38 1004.34 1005.44 1005.98 1006.25 1006.06 1006.06 1006.04 1005.88 1006.20 1006.57 1007.28 1008.23 1008.83 1009.40 1009.73 1009.35 1009.04 1007.90 1006.76 1005.70 1005.35 1005.01 1004.81 1004.67 1004.31
1011.66 1010.83 1010.96 1010.61 1009.19 1007.89 1008.20 1007.98 1007.65 1006.07 1002.75 1001.69 1001.25 1001.57 1001.98 1002.34 1002.60 1002.85 1003.31 1003.96 1004.66 1005.54 1005.91 1006.07 1005.88 1005.66 1005.52 1005.91 1006.19 1006.88 1008.19 1009.79 1010.45 1010.82 1010.38 1009.56 1009.34 1007.53 1006.13 1005.68 1005.29 1004.96 1004.92 1004.71 1004.80
1010.92 1009.66 1008.44 1007.99 1007.48 1008.22 1007.96 1007.59 1006.60 1004.03 1002.25 1001.05 1000.80 1001.45 1001.98 1002.31 1002.80 1003.16 1003.75 1004.48 1004.90 1005.48 1006.15 1006.16 1005.98 1005.28 1004.96 1005.31 1005.93 1006.83 1008.05 1009.92 1010.70 1011.49 1011.06 1009.93 1008.88 1007.22 1006.22 1005.63 1005.05 1005.24 1005.39 1004.85 1004.98
1010.17 1008.87 1008.04 1006.03 1006.96 1007.67 1007.75 1007.07 1005.20 1003.58 1002.26 1001.59 1000.78 1001.62 1002.19 1002.33 1002.80 1003.46 1004.12 1004.46 1004.91 1005.25 1006.13 1006.40 1006.10 1005.38 1005.06 1005.07 1005.59 1006.74 1007.97 1008.64 1010.43 1011.86 1011.83 1010.76 1009.00 1007.27 1006.52 1006.14 1005.97 1006.09 1006.10 1006.00 1005.91
1010.34 1009.12 1006.95 1004.89 1006.00 1007.03 1007.19 1005.92 1004.49 1003.29 1002.12 1001.34 1000.95 1001.33 1002.18 1002.57 1003.26 1003.75 1004.54 1004.93 1005.26 1005.42 1005.62 1006.58 1006.83 1006.51 1005.97 1005.67 1006.06 1006.32 1007.47 1009.17 1010.90 1012.17 1012.40 1011.22 1009.87 1008.27 1007.64 1007.17 1006.76 1006.76 1006.66 1006.51 1006.24
1010.66 1009.02 1005.01 1004.55 1005.23 1006.38 1006.35 1005.20 1003.75 1002.71 1002.53 1001.54 1001.25 1001.74 1002.25 1002.84 1003.40 1004.28 1005.13 1005.45 1005.40 1005.87 1006.06 1007.09 1007.88 1008.09 1007.44 1007.36 1007.57 1007.93 1008.59 1009.78 1010.85 1011.84 1012.39 1012.08 1009.94 1008.04 1007.72 1007.67 1007.49 1007.05 1006.91 1006.49 1006.55
1010.90 1008.92 1005.33 1004.88 1005.62 1006.00 1005.65 1004.50 1003.51 1003.20 1002.60 1001.68 1001.73 1002.46 1002.99 1003.33 1004.05 1004.62 1005.38 1005.54 1005.79 1006.15 1007.09 1008.05 1008.95 1009.57 1009.32 1009.18 1008.83 1008.99 1009.74 1010.61 1011.59 1012.70 1012.53 1012.21 1010.33 1008.45 1008.17 1007.99 1007.88 1007.68 1007.20 1006.79 1006.49
1010.94 1009.09 1005.66 1005.36 1005.58 1005.65 1004.93 1004.11 1003.56 1003.43 1003.20 1002.65 1002.49 1002.81 1003.38 1004.34 1005.31 1005.58 1006.01 1006.42 1006.68 1007.37 1008.00 1008.57 1010.19 1011.14 1010.96 1010.61 1010.20 1010.45 1010.86 1011.41 1012.07 1012.67 1012.65 1012.39 1010.38 1008.91 1008.63 1008.40 1007.94 1008.21 1008.03 1007.70 1007.47
1011.37 1009.47 1006.74 1005.89 1005.86 1005.67 1005.14 1004.29 1003.87 1003.58 1003.33 1003.30 1003.29 1003.38 1004.25 1005.44 1005.71 1006.49 1007.09 1007.63 1007.65 1008.25 1008.88 1009.27 1010.80 1011.31 1011.60 1011.48 1011.51 1011.61 1011.62 1011.72 1012.17 1012.77 1012.34 1011.19 1010.53 1009.68 1008.97 1008.42 1008.00 1008.33 1008.45 1008.25 1008.10
1011.30 1009.25 1008.21 1007.11 1006.52 1005.90 1005.42 1004.25 1003.95 1003.64 1003.43 1004.25 1004.38 1004.58 1005.27 1006.57 1007.03 1007.72 1007.94 1008.27 1008.69 1009.09 1009.72 1010.45 1011.83 1012.24 1012.17 1012.07 1012.01 1011.83 1011.72 1011.74 1012.07 1011.92 1011.76 1010.98 1010.64 1010.32 1009.80 1009.35 1008.67 1008.77 1008.73 1008.66 1008.73
1010.78 1009.70 1008.59 1007.72 1006.93 1006.29 1005.64 1004.53 1004.44 1004.13 1004.32 1004.85 1005.44 1005.98 1006.13 1007.30 1007.78 1008.45 1008.68 1009.03 1009.52 1010.35 1011.18 1011.97 1013.07 1013.21 1013.09 1012.39 1012.15 1011.78 1011.36 1011.16 1011.30 1011.25 1010.94 1010.68 1010.23 1009.84 1009.58 1009.36 1009.51 1009.51 1009.51 1009.47 1009.28
1010.67 1009.97 1009.65 1008.32 1007.51 1006.89 1006.55 1005.73 1004.89 1004.56 1005.53 1005.82 1006.12 1006.67 1007.33 1008.03 1008.20 1008.65 1008.97 1009.39 1009.82 1010.64 1011.94 1012.77 1013.59 1014.34 1014.16 1013.44 1012.62 1011.77 1010.44 1010.50 1010.24 1009.90 1009.90 1010.02 1009.70 1009.60 1009.80 1009.84 1009.89 1009.88 1009.80 1009.68 1009.49
Wind_Speed
15 13 11 12 13 13 14 12 12 12 12 11 11 10 10 10 10 3 12 14 12 12 2 6 3 5 2 3 3 3 2 4 5 5 5 6 8 6 5 4 4 4 4 5 11
14 15 13 12 11 13 13 13 12 12 12 12 11 10 9 8 4 12 14 20 19 6 4 5 7 7 4 5 4 5 5 8 6 5 4 3 3 4 5 8 7 5 8 8 13
15 14 14 14 12 10 12 13 11 11 12 11 10 9 8 4 6 12 9 27 22 12 5 7 4 6 3 4 5 6 7 5 4 6 2 4 9 4 3 2 2 1 2 5 5
15 16 16 14 14 13 11 12 13 11 11 10 9 8 8 3 6 1 6 24 20 12 5 7 5 6 5 6 5 3 7 5 3 5 2 6 4 5 1 7 4 4 3 2 3
14 15 15 17 15 14 13 12 13 12 11 10 8 6 3 3 12 5 2 18 14 12 9 7 7 6 6 6 3 3 5 5 6 9 6 4 9 7 6 10 6 4 5 5 5
16 16 15 16 17 15 13 13 12 13 11 8 6 5 2 5 5 2 12 15 13 10 8 8 9 7 5 5 7 6 9 10 5 9 5 6 11 8 8 10 8 6 7 8 9
16 17 17 17 17 17 15 14 14 14 9 7 6 5 4 18 1 2 11 7 10 10 9 6 5 5 5 3 6 4 4 5 6 8 8 8 9 8 11 7 8 8 8 8 10
15 17 18 19 19 18 17 17 18 14 5 7 6 3 11 5 3 5 3 3 5 4 1 7 7 2 3 2 5 1 3 0 5 3 8 9 12 6 9 7 10 10 8 8 9
17 17 18 20 22 19 17 18 21 8 8 8 4 3 13 6 3 7 7 5 7 4 4 1 7 7 2 6 4 4 3 4 5 5 2 5 5 10 6 8 10 10 9 8 9
18 20 18 19 20 20 18 18 7 8 6 5 5 2 7 5 5 7 7 5 5 6 1 4 2 4 3 4 7 6 4 4 5 1 4 4 8 10 12 9 13 10 9 8 8
19 19 19 19 17 15 9 5 2 2 5 12 9 6 4 3 4 6 7 6 2 4 6 4 4 6 8 5 4 3 2 4 4 4 1 7 7 10 11 3 7 8 9 9 10
20 20 21 21 20 14 3 4 7 1 6 20 14 13 8 3 3 4 10 7 6 6 4 4 5 8 4 4 4 4 3 5 10 7 7 9 9 9 4 6 8 9 9 10 7
21 22 21 22 24 5 6 10 5 7 3 6 10 8 6 9 6 5 13 6 6 6 6 7 7 7 4 4 3 4 4 6 9 5 3 3 5 6 5 5 2 5 6 7 9
21 21 20 19 6 2 6 8 12 5 1 6 8 7 7 6 4 7 9 8 3 10 7 5 6 5 4 6 8 6 9 11 6 3 5 3 6 6 6 7 5 8 7 9 9
22 22 17 9 9 5 4 2 6 0 3 5 5 4 8 9 5 4 6 5 8 6 8 7 5 5 4 7 7 7 3 6 7 5 3 1 2 9 3 4 7 8 9 9 10
25 23 18 6 4 13 8 6 2 4 8 5 7 7 7 4 3 4 5 4 5 5 2 8 2 4 6 5 5 1 1 6 5 4 1 5 6 5 4 5 5 5 7 7 10
27 27 16 6 7 4 4 1 3 4 6 5 5 7 6 6 4 5 7 6 6 6 6 0 4 4 5 3 1 4 6 3 4 2 6 3 0 8 5 5 6 6 5 4 5
30 32 6 8 10 12 2 4 3 6 6 5 6 7 5 5 3 6 6 5 2 5 3 6 3 7 5 8 8 7 10 7 6 4 4 5 5 5 2 5 5 6 5 4 8
30 4 4 5 11 3 3 3 6 4 1 7 5 7 3 4 5 5 7 6 4 5 6 5 3 3 4 1 6 4 4 5 7 2 4 4 7 8 5 8 8 9 9 8 8
8 5 6 4 14 4 3 5 5 5 12 3 4 4 8 8 5 5 7 1 5 3 4 3 1 3 4 3 3 4 4 2 3 5 5 4 4 6 2 5 6 6 7 7 6
3 6 3 9 5 4 4 6 5 3 7 3 2 3 2 6 5 5 2 3 3 3 6 4 4 3 3 3 2 5 2 4 5 5 6 1 7 5 8 3 1 3 2 4 5
4 4 4 4 4 3 3 5 2 3 4 3 5 2 2 2 4 4 5 3 5 2 5 2 5 1 3 6 3 2 3 3 4 4 1 5 8 1 3 4 6 6 8 5 4
6 5 4 0 3 3 4 3 2 3 1 6 3 3 3 3 6 5 5 2 6 5 3 4 2 3 5 6 6 6 3 5 4 3 5 4 5 2 4 6 5 6 7 7 8
3 5 3 1 2 1 2 4 4 2 3 2 4 5 5 5 6 5 4 5 3 4 9 7 3 6 7 3 3 2 0 2 5 3 3 8 6 9 13 18 14 8 6 6 3
3 3 1 3 2 2 3 4 5 5 4 1 5 3 5 4 4 4 4 4 7 5 6 5 4 2 2 2 3 3 6 6 7 6 8 2 9 5 8 11 16 4 5 6 6
3 3 4 4 4 4 5 1 5 5 4 3 6 4 6 6 2 5 5 2 3 5 4 4 2 2 3 4 2 4 8 8 7 8 10 14 15 10 2 1 5 5 5 5 4
3 2 1 4 4 1 4 8 2 6 7 4 10 7 10 4 5 6 2 3 4 7 3 4 6 4 4 4 5 7 7 7 6 6 5 6 6 2 3 5 4 3 3 4 5
Wind_Direction
336 338 340 342 336 337 341 322 307 293 286 283 281 281 282 290 300 253 229 220 184 235 92 111 168 189 120 218 216 105 83 213 212 194 241 322 26 346 296 346 329 321 162 153 133
336 333 335 339 340 333 330 336 314 302 293 287 285 286 291 298 289 243 227 220 215 196 159 170 174 145 163 192 204 145 171 206 205 218 270 331 305 360 3 349 344 20 15 44 128
331 332 331 332 333 333 326 324 329 307 294 283 279 277 283 314 259 242 211 204 202 187 147 165 126 139 179 164 196 188 216 167 228 246 290 291 320 9 339 360 263 47 64 86 99
331 331 329 329 327 326 322 319 317 313 297 281 271 274 272 231 225 250 153 190 186 168 143 142 133 144 168 194 211 196 243 214 175 237 277 269 273 307 196 232 184 258 274 49 70
330 329 328 326 325 324 318 316 312 305 298 272 258 250 248 237 252 278 41 164 157 155 177 154 139 151 174 198 140 225 267 250 236 259 240 272 260 239 272 250 228 220 189 212 199
324 322 322 323 322 323 317 312 309 307 300 247 247 241 251 260 243 187 123 142 157 147 162 148 183 193 195 200 155 215 229 257 272 257 243 203 256 148 251 254 253 201 235 210 217
320 318 319 318 319 321 318 314 310 313 297 220 201 223 270 240 16 102 144 168 159 170 167 188 184 168 162 199 218 220 215 270 253 251 229 173 263 210 230 240 249 265 253 245 235
317 318 315 315 317 319 319 316 309 302 249 195 182 206 249 241 288 161 219 141 149 186 160 177 148 204 201 232 23 360 36 211 273 259 254 155 254 263 248 233 247 249 251 251 250
319 317 318 316 314 316 319 314 312 272 169 166 148 191 265 308 214 204 177 183 157 191 240 249 149 201 145 130 20 353 203 189 290 207 215 163 281 270 265 246 254 254 246 241 252
318 318 314 314 312 315 319 313 287 107 141 159 256 318 262 236 181 181 186 200 159 142 151 198 137 164 64 110 198 207 207 223 202 248 181 278 265 284 286 224 226 238 262 266 255
319 321 317 314 311 310 327 346 118 189 226 193 190 230 259 266 150 191 149 132 333 127 164 184 132 197 204 184 173 183 207 266 260 252 305 253 251 265 285 245 233 230 248 255 242
320 319 317 314 310 299 271 251 242 170 280 223 236 251 287 32 312 219 120 147 139 210 151 52 217 220 202 168 208 228 244 266 290 258 165 267 251 248 288 249 222 216 236 241 248
318 317 318 317 313 318 202 223 274 347 267 271 196 220 217 156 215 241 149 155 144 154 169 164 226 172 168 244 234 243 201 243 224 293 221 245 281 275 278 280 269 251 249 292 245
317 317 318 323 316 325 239 253 237 196 352 261 183 237 171 171 224 209 170 141 146 178 146 215 253 201 193 230 178 252 214 229 237 251 236 133 275 291 272 295 299 277 266 265 263
317 315 312 313 291 250 204 358 83 196 253 169 158 160 149 165 140 208 159 87 165 156 121 231 167 161 184 214 181 222 135 212 205 184 132 275 94 266 276 292 286 299 296 294 261
315 312 313 311 236 238 311 324 149 64 254 188 130 158 133 190 157 99 121 101 146 144 127 208 196 149 206 211 191 348 25 38 41 92 240 229 168 268 227 227 292 271 307 317 313
315 310 300 240 226 137 230 141 68 197 300 175 163 150 157 159 159 136 153 153 148 146 216 106 225 204 177 213 350 104 66 337 336 350 217 256 70 233 265 262 247 269 309 354 15
318 311 260 202 220 266 290 60 205 240 280 331 139 130 158 130 215 154 119 143 146 114 131 164 237 173 179 183 189 188 159 159 206 206 247 319 247 241 279 330 323 27 347 127 104
321 306 262 233 189 173 95 152 223 221 150 272 116 147 225 163 135 125 173 183 158 160 157 151 261 331 74 86 150 171 173 194 108 18 73 251 300 314 15 23 56 51 39 18 356
315 307 259 155 155 128 104 232 234 212 308 267 156 91 182 182 101 118 152 121 131 197 142 177 86 3 341 47 22 124 149 106 9 164 226 267 252 236 43 59 42 53 63 39 60
317 319 274 150 153 70 196 236 261 300 14 282 158 128 99 138 131 118 67 46 52 43 98 111 110 285 7 29 60 2 45 60 119 129 158 215 257 231 168 154 10 311 148 112 84
330 309 322 193 102 181 204 213 274 9 333 301 96 109 125 53 81 100 130 105 15 42 78 50 115 182 246 324 249 110 105 112 144 216 135 141 268 327 102 29 4 289 293 311 273
309 270 293 25 208 210 264 233 266 166 12 320 76 62 65 116 100 103 106 84 136 35 161 169 33 76 355 347 3 76 34 89 105 91 208 201 240 122 287 308 341 319 275 276 298
302 306 313 188 213 267 281 248 183 214 169 4 25 63 69 45 25 110 94 36 48 101 86 100 129 160 190 165 172 204 198 165 155 153 211 232 291 307 327 314 310 298 303 287 336
230 262 125 281 225 285 256 285 192 166 140 146 18 47 133 101 66 85 58 56 35 38 45 87 136 128 192 193 189 228 246 218 207 217 212 201 241 248 243 264 281 346 92 74 62
285 338 336 285 295 348 327 284 230 123 25 68 105 48 87 107 121 149 131 129 163 34 71 10 124 66 304 284 349 262 263 262 236 235 245 248 266 238 263 64 70 41 56 50 31
319 325 348 290 315 268 345 318 126 123 42 87 134 95 74 135 135 155 125 142 141 134 114 104 129 106 264 5 343 296 238 208 232 222 219 238 231 175 106 122 143 101 50 8 336